Theta_e
298 298 298 299 299 299 299 299 298 300 302 302 304 309 309 309 307 300 291 291 290 281 282 284 284 280 280 279 276 276 276 273 267 263 261 259 257 262 258 263 264 264 264 262 265 264 265 279 278 276 281 282 281 280
297 297 298 298 297 298 299 298 298 299 301 301 303 309 309 309 307 302 290 291 290 285 282 283 282 282 282 283 280 278 277 272 276 267 263 263 260 259 256 261 268 264 270 267 271 273 279 279 281 283 284 282 281 280
297 297 297 297 298 297 298 297 297 299 300 301 302 309 309 309 307 302 292 288 287 282 280 280 278 282 284 283 283 280 277 280 277 276 269 264 261 266 260 261 263 269 272 270 272 274 276 277 278 279 282 281 282 281
296 296 296 297 297 297 298 297 297 298 299 300 301 308 309 308 305 300 292 290 290 285 279 274 284 279 283 284 284 282 281 279 278 276 268 261 262 273 268 270 269 271 272 270 270 275 276 276 277 279 280 280 281 281
295 296 296 296 296 296 297 296 296 297 298 299 300 307 308 307 305 298 292 291 292 289 278 275 281 280 282 283 282 282 280 277 270 269 264 266 270 269 269 267 267 272 272 271 270 275 275 276 276 278 279 278 280 279
295 295 295 296 296 296 296 296 296 297 297 298 300 303 308 306 299 293 285 293 289 287 278 270 273 278 278 282 282 281 281 277 273 271 268 274 276 272 265 262 272 274 274 276 275 275 276 276 277 276 276 276 278 279
295 295 295 295 295 296 296 295 295 296 296 297 299 301 307 301 298 289 287 290 293 290 281 273 269 276 274 280 280 280 282 275 274 270 273 276 277 272 272 264 277 275 276 276 275 274 275 274 276 273 274 275 272 272
294 294 295 295 295 295 295 295 294 295 296 297 299 301 303 303 299 290 292 297 294 287 285 272 267 271 277 274 275 277 274 271 270 267 272 271 272 272 269 274 275 274 273 274 274 276 275 270 270 269 267 268 269 270
294 294 294 294 294 295 295 294 294 294 295 297 299 301 300 290 285 287 297 296 291 286 279 271 268 268 276 271 271 274 271 268 266 267 268 272 264 268 271 273 272 272 273 271 262 263 264 268 271 265 263 265 268 268
294 294 293 294 294 294 294 294 294 294 295 297 295 286 281 284 297 294 287 284 285 284 276 267 265 269 273 271 269 268 269 264 263 265 268 264 266 273 275 274 271 267 269 265 266 266 261 264 268 266 268 267 269 267
293 293 293 293 293 294 293 293 294 293 294 286 284 280 286 296 287 284 280 281 281 279 277 269 268 271 275 271 269 267 264 260 262 263 263 259 261 268 270 269 272 276 271 269 269 268 268 269 269 269 268 267 266 264
293 293 293 293 293 293 293 293 294 290 285 286 285 286 286 285 281 278 277 277 276 274 270 270 270 272 272 272 268 265 262 261 262 257 259 262 268 271 268 268 267 266 270 272 269 270 267 268 267 267 265 262 263 264
293 293 293 293 293 293 293 293 294 293 290 286 285 282 279 282 275 274 271 271 268 270 266 267 267 269 270 272 266 266 263 260 259 260 261 268 270 268 267 262 262 257 255 260 263 262 265 264 261 262 263 258 258 259
292 292 292 293 293 293 293 293 294 291 285 281 277 273 275 275 277 274 275 273 268 270 270 276 268 271 269 270 267 268 256 259 257 253 263 271 274 275 266 260 263 265 262 264 264 264 265 266 267 262 259 257 258 259
292 292 292 292 292 293 293 293 294 288 283 279 279 274 273 273 262 257 268 269 264 278 275 270 269 270 265 263 258 258 257 259 261 265 272 274 271 267 265 259 262 261 264 262 255 257 262 262 262 262 256 256 255 255
292 291 287 292 292 292 293 291 286 285 282 280 279 274 270 271 265 259 268 273 278 278 278 271 266 267 268 264 258 262 264 263 270 270 273 269 270 262 263 264 265 262 261 258 259 254 256 259 260 261 252 253 256 258
290 282 291 292 292 292 291 285 283 280 278 277 276 273 272 264 270 267 278 278 281 280 276 266 266 267 262 259 259 263 264 274 274 273 270 275 273 266 261 258 258 259 257 256 254 254 256 253 252 256 262 259 256 258
277 283 292 292 289 288 285 283 279 275 275 277 275 271 263 263 266 271 267 280 281 277 270 271 266 262 265 264 263 268 271 271 266 267 269 268 270 264 257 263 257 260 259 257 257 256 256 258 263 266 260 259 257 256
282 285 291 291 287 282 278 279 278 271 271 267 270 271 270 264 266 269 277 281 265 270 274 272 270 266 267 265 270 276 271 268 273 269 270 266 267 268 259 255 258 258 260 259 259 263 263 264 265 264 262 262 265 260
290 291 291 291 287 278 271 272 275 268 264 267 269 272 272 268 265 268 278 263 267 272 274 270 271 270 270 272 274 276 275 271 269 269 270 266 262 264 264 263 264 260 259 256 257 260 260 262 259 260 263 262 268 266
284 283 289 283 277 274 270 264 267 267 267 267 269 272 271 274 274 270 277 265 270 268 267 269 266 269 264 266 270 271 266 272 274 277 276 274 262 264 261 260 262 263 262 261 265 263 263 268 268 264 266 263 262 263
284 287 282 282 273 267 267 265 272 273 267 266 270 275 266 266 273 276 273 271 265 271 269 267 266 265 266 270 272 271 269 268 265 267 266 268 265 263 262 264 267 267 268 270 270 270 268 266 264 265 266 262 263 264
284 281 277 274 272 267 264 264 266 269 266 266 267 272 269 266 272 274 276 276 272 264 263 263 263 264 270 263 264 264 267 271 270 268 266 265 266 268 269 269 268 271 270 271 271 273 271 266 267 268 267 266 266 266
282 276 273 268 266 265 262 261 261 266 269 266 266 268 265 265 267 270 271 263 270 257 263 267 265 267 267 268 267 273 270 269 268 265 265 270 271 268 269 272 272 271 274 275 274 274 272 272 271 270 270 270 270 268
272 271 271 264 261 261 260 260 260 262 264 265 265 262 266 266 265 268 269 267 264 265 266 262 266 272 274 271 267 268 263 271 274 273 269 269 267 269 268 267 268 271 272 275 274 274 273 272 271 271 270 270 268 266
267 267 263 259 259 261 260 259 260 262 260 262 264 264 261 267 263 264 266 271 266 270 269 274 276 270 268 274 273 268 273 268 270 270 267 272 274 274 273 272 271 273 272 274 276 274 272 272 271 270 269 268 267 264
260 261 260 258 259 258 258 258 261 259 260 265 264 260 260 263 267 269 261 255 257 255 255 257 275 278 279 271 263 263 266 271 268 269 267 269 265 266 273 275 275 276 275 277 278 276 274 272 271 270 267 266 266 265
259 256 261 259 258 256 257 255 259 257 261 263 264 262 264 265 270 263 251 250 249 253 255 254 253 255 263 270 268 267 263 264 265 267 267 266 263 263 266 270 272 275 275 276 275 276 275 273 270 268 266 264 262 263
258 256 259 257 258 259 260 263 262 257 255 258 261 262 262 255 248 250 252 250 252 250 253 255 257 255 259 261 260 257 265 271 271 268 270 270 266 268 264 267 269 271 272 272 273 272 271 270 268 265 263 261 260 259
256 257 258 254 256 257 261 262 256 252 255 256 256 257 256 256 250 249 251 251 251 251 252 253 254 254 260 266 261 259 254 254 257 269 276 275 274 267 267 268 268 270 270 269 266 265 266 263 263 261 260 259 258 257
254 257 259 256 257 256 255 254 252 250 249 249 251 255 257 254 255 253 251 251 250 254 254 255 255 254 256 259 261 263 261 257 256 259 262 267 267 267 268 269 269 268 267 266 265 264 263 262 261 259 258 257 257 256
252 255 258 258 257 254 255 254 255 251 250 250 252 252 253 253 258 258 255 254 255 254 255 254 253 254 252 253 255 256 259 259 258 260 263 265 266 266 267 267 267 267 266 265 264 263 262 261 260 259 257 256 256 255
250 251 254 255 253 255 256 259 254 255 253 255 256 256 254 258 261 255 256 256 255 256 256 255 256 257 256 256 258 259 260 261 263 266 266 266 266 266 266 265 265 265 264 263 262 261 260 259 258 257 256 255 254 254
Wind_Speed
31 30 28 28 25 22 23 21 20 21 17 19 24 38 38 38 38 18 3 2 6 3 1 2 5 7 4 4 6 5 5 3 4 3 4 4 3 5 1 5 7 9 8 5 2 3 10 5 1 4 3 5 5 6
30 29 29 28 26 25 23 20 20 20 18 20 21 37 38 38 38 23 5 1 5 5 2 2 3 3 3 4 7 3 2 5 5 5 1 4 2 1 3 5 3 4 9 6 11 10 5 1 5 2 3 7 6 6
31 30 28 25 28 24 23 19 20 19 16 17 21 33 36 35 39 25 8 6 6 5 3 2 1 4 3 5 1 6 2 4 3 2 4 2 3 5 4 9 1 6 4 4 2 7 10 8 7 7 7 8 8 9
29 29 26 25 27 25 24 20 19 16 14 15 19 27 34 35 39 22 11 5 6 4 5 3 1 3 4 3 4 3 6 5 5 2 3 4 3 4 4 4 5 6 7 6 8 16 13 7 6 4 1 6 7 6
28 28 25 24 25 22 21 18 18 17 11 12 16 21 33 36 38 12 5 3 1 7 4 2 2 3 3 3 5 6 6 5 2 3 3 4 2 2 1 2 7 9 9 8 11 10 3 5 2 2 2 2 5 4
28 27 25 26 25 23 23 19 17 15 9 9 14 12 32 37 32 11 4 5 3 6 6 3 3 2 4 3 5 5 3 3 3 4 3 2 3 3 1 6 10 11 6 8 6 6 6 4 5 3 2 2 2 3
27 26 24 25 23 21 20 19 16 15 9 8 11 13 32 41 18 11 7 8 13 4 5 4 2 2 0 2 1 2 3 1 3 2 2 2 2 3 3 8 8 12 14 9 6 2 6 4 6 2 1 1 1 2
25 23 23 21 21 21 20 20 17 13 8 5 10 15 37 40 22 4 2 25 13 7 4 5 1 1 2 2 2 1 2 3 3 2 1 2 0 3 10 18 9 4 4 7 10 11 6 1 2 2 1 2 3 1
23 23 23 22 20 18 19 18 17 13 9 7 11 11 20 5 6 4 19 14 5 5 6 4 9 6 3 1 2 2 2 1 1 1 3 2 3 12 15 12 8 7 9 5 2 1 2 6 8 6 3 4 2 5
24 23 22 20 19 19 16 13 16 14 10 9 1 5 3 3 42 21 5 3 3 1 3 4 1 5 5 2 1 4 1 2 2 5 1 3 9 20 21 14 8 6 8 8 4 2 0 5 9 6 10 4 5 4
23 22 21 20 19 19 17 15 14 14 4 0 3 3 4 23 5 4 6 6 4 5 5 5 5 8 2 4 4 1 3 1 1 4 4 4 9 9 7 9 11 15 11 12 6 2 4 5 6 6 6 8 6 4
22 21 20 19 18 17 16 14 17 6 2 2 6 6 2 3 3 7 6 4 5 9 4 8 6 5 3 3 5 1 4 2 6 1 2 6 11 9 5 6 5 6 9 12 10 10 6 4 5 5 4 3 6 5
23 21 20 18 20 19 16 16 14 15 10 2 3 7 4 4 6 9 10 4 6 8 7 6 5 6 3 3 5 4 5 5 1 1 8 10 6 6 8 4 5 3 3 3 5 4 6 5 3 4 5 3 3 3
22 21 20 20 19 18 16 17 17 16 2 2 5 7 6 6 7 8 10 8 5 9 12 12 6 5 3 4 3 5 0 2 1 3 10 7 12 10 5 4 5 7 9 8 8 7 9 10 9 6 5 4 5 4
21 20 20 18 19 17 16 16 19 4 1 3 4 6 6 2 4 2 6 8 1 14 14 7 5 5 2 6 2 6 3 7 8 9 9 4 4 2 3 2 6 5 6 7 5 5 6 7 7 5 5 5 4 4
20 17 9 17 18 17 17 11 4 3 2 4 0 3 2 5 2 2 5 11 10 14 8 5 6 5 4 7 5 11 7 9 8 8 5 2 4 4 5 6 7 4 5 4 5 4 4 7 7 6 4 4 5 5
15 3 16 19 17 16 16 4 1 4 2 3 2 0 2 3 5 4 11 11 15 16 11 6 9 10 6 3 4 7 9 9 4 5 4 5 5 5 5 4 5 6 5 4 3 3 3 3 4 4 5 5 5 5
2 5 21 19 10 7 2 2 2 2 5 4 3 3 2 3 5 5 2 14 12 7 5 6 9 5 9 10 7 7 10 4 4 4 4 3 4 4 4 6 5 7 6 5 4 4 4 5 6 5 4 5 4 2
5 5 20 21 8 4 3 2 2 0 4 0 1 0 1 3 1 3 6 15 2 3 11 3 6 7 7 5 7 5 4 5 6 5 4 4 3 5 5 3 5 5 7 6 5 5 4 4 2 4 4 5 4 3
12 13 22 18 10 3 4 1 2 3 1 4 2 1 1 1 2 4 9 3 2 3 3 5 7 6 7 7 7 5 5 5 5 2 3 2 3 6 7 7 6 5 6 3 2 4 3 1 1 3 4 3 4 3
9 6 12 5 3 4 4 2 2 3 1 1 1 2 2 1 3 3 10 1 1 5 3 5 4 4 3 1 2 4 3 6 7 7 6 5 4 4 3 1 4 3 2 4 6 4 3 4 4 4 4 3 3 4
4 11 2 4 4 4 4 2 3 1 2 2 1 1 3 2 3 4 4 2 5 5 4 5 4 4 2 4 5 6 5 6 4 5 5 7 5 3 3 6 7 7 5 6 6 8 6 3 4 4 5 4 4 4
8 4 3 4 4 4 2 2 3 1 1 3 2 2 0 1 3 4 6 4 5 3 2 2 3 1 2 3 3 2 4 8 5 4 3 3 3 4 6 6 3 7 7 6 3 5 5 6 5 7 6 5 6 6
5 4 2 3 3 2 2 2 2 1 1 1 1 3 2 3 1 1 4 4 5 1 2 5 3 3 3 3 2 5 5 4 4 3 2 6 4 2 3 5 5 2 2 6 6 6 6 6 7 7 7 7 6 6
5 1 2 2 3 5 3 1 1 1 3 3 1 3 3 2 2 3 4 6 3 4 4 2 2 4 5 2 2 3 4 4 7 6 4 4 4 3 3 2 1 2 3 9 7 8 8 7 6 7 7 7 9 9
3 1 4 4 1 4 5 4 5 7 4 3 5 0 2 3 3 7 6 6 5 6 6 10 10 5 4 5 5 4 6 4 4 3 3 7 7 6 7 8 6 6 6 3 9 10 10 8 8 10 8 8 11 12
3 4 2 1 4 4 2 1 1 2 4 6 3 3 3 4 7 7 3 3 2 4 4 3 6 8 6 4 1 2 1 5 3 3 2 5 3 2 4 7 10 4 9 8 10 12 14 12 10 10 9 8 7 9
4 5 6 4 2 1 5 2 3 5 4 1 4 5 6 9 7 3 3 3 2 6 6 4 3 3 2 4 5 7 5 5 6 6 6 4 3 3 3 2 3 6 7 7 5 9 11 11 11 11 11 10 8 7
1 2 4 2 2 1 4 5 4 3 3 2 3 4 5 2 2 4 5 3 4 1 3 4 4 3 2 4 4 2 5 9 11 7 8 4 2 3 2 4 4 4 7 10 14 11 12 11 13 13 13 11 9 9
3 1 3 2 6 7 6 5 3 2 1 1 1 2 4 4 4 3 4 4 2 2 3 3 3 2 4 6 6 2 2 2 2 4 9 9 7 7 7 7 7 6 8 13 14 16 19 17 17 12 12 10 9 10
3 2 1 2 4 4 3 2 2 3 2 2 1 3 3 5 3 2 3 4 3 3 3 2 2 3 0 1 4 6 2 2 1 1 2 5 7 8 8 8 8 9 8 10 12 13 14 12 12 14 14 14 13 12
3 3 2 2 5 2 1 2 3 3 3 3 5 3 2 1 4 2 2 4 1 2 3 2 2 1 2 2 1 2 5 5 3 3 6 7 8 9 9 8 8 9 11 12 11 12 15 17 14 14 14 16 14 14
4 2 2 2 4 3 3 2 3 3 3 4 5 4 4 4 5 1 2 1 1 2 1 1 2 2 2 3 5 5 6 6 8 11 12 12 13 13 10 9 9 11 14 13 12 14 16 20 16 17 17 16 15 15
Wind_Direction
232 234 234 233 230 235 232 236 246 258 272 281 299 196 192 182 179 170 132 283 132 117 262 218 164 136 121 157 148 182 77 312 47 112 138 213 163 220 75 213 185 173 163 208 151 215 273 201 203 191 201 281 275 295
228 227 233 230 229 234 230 231 242 256 267 284 301 195 191 182 173 161 124 213 86 84 103 37 54 25 22 145 128 184 144 164 168 90 290 94 202 154 164 267 309 277 197 183 187 220 229 221 243 232 161 254 268 273
224 224 228 224 232 222 231 228 241 250 268 278 281 201 189 180 169 168 142 145 86 114 45 84 98 346 19 21 355 125 292 163 167 142 152 176 213 128 187 237 230 240 180 219 21 265 245 260 275 249 200 232 253 262
221 220 220 216 229 227 221 218 240 249 264 270 293 207 189 173 163 157 161 153 117 113 127 262 300 27 330 18 52 48 122 84 92 78 109 138 165 173 233 256 218 206 148 190 266 284 282 266 238 264 278 262 268 284
213 216 219 211 224 217 222 213 230 242 253 275 310 218 183 167 158 122 91 109 189 142 143 145 59 3 338 69 78 83 97 101 109 75 94 228 217 100 258 359 247 181 196 177 219 232 211 248 257 292 359 339 299 260
208 211 211 210 215 223 216 208 221 236 238 281 311 312 170 157 128 105 105 248 173 131 105 105 282 31 3 104 101 98 94 93 97 135 212 261 259 141 269 252 245 211 206 191 223 204 216 266 277 231 206 96 349 277
206 209 208 208 209 217 209 203 208 236 222 255 313 302 173 142 139 159 183 154 164 113 106 100 53 359 260 103 76 78 43 87 118 157 205 239 230 141 243 245 240 209 219 225 230 103 285 207 244 181 144 89 168 274
202 200 197 193 208 202 205 206 202 228 220 263 305 291 157 146 120 101 344 153 132 87 91 126 85 53 218 145 119 61 86 30 5 195 11 200 342 224 254 244 264 220 227 237 224 211 201 136 10 309 324 4 16 288
193 191 190 192 193 193 210 204 193 206 219 247 286 265 143 99 120 130 132 114 54 112 132 129 144 186 150 137 134 67 111 98 299 183 241 134 233 227 231 246 242 204 199 217 52 227 197 215 246 265 282 311 278 284
185 183 187 186 194 186 192 198 187 187 215 246 298 70 140 220 114 105 58 111 123 140 87 112 95 140 128 172 73 92 46 182 209 242 65 215 253 259 255 240 223 218 203 153 108 300 170 256 222 229 224 221 212 214
183 182 184 182 186 179 179 204 177 196 180 209 118 88 150 124 78 90 136 157 140 167 156 153 150 136 216 137 146 135 168 163 186 248 165 260 269 247 237 236 240 230 202 205 209 233 202 168 186 206 238 228 214 206
181 183 185 189 193 177 191 190 188 144 205 145 116 101 137 149 107 125 138 112 169 186 156 139 156 128 150 122 105 238 129 85 235 131 83 261 250 246 250 250 260 214 205 211 194 209 198 195 167 153 171 213 196 197
180 182 182 182 178 177 196 168 182 129 122 209 114 162 177 171 128 154 154 192 163 164 170 158 112 127 129 95 79 132 128 213 114 172 232 236 260 266 244 235 256 216 229 209 206 208 181 189 173 169 179 220 153 182
176 178 177 179 180 180 197 172 170 143 127 204 162 156 200 167 192 183 188 135 152 132 146 140 106 135 134 104 143 128 135 86 273 259 238 238 238 233 215 201 144 202 195 209 215 197 202 198 204 200 201 171 162 203
176 174 174 176 180 183 191 166 169 121 273 243 199 172 180 134 14 303 106 101 161 148 132 107 77 97 98 103 47 100 59 245 213 233 229 235 280 231 231 249 230 220 192 193 187 198 207 190 186 203 207 189 170 142
170 167 174 175 174 179 173 162 89 116 246 262 189 78 346 81 27 307 134 115 137 148 121 64 119 106 169 127 116 209 159 218 236 217 227 248 249 230 214 207 210 204 186 205 182 187 169 168 179 192 141 173 186 167
130 151 179 173 170 169 121 87 137 139 163 279 228 37 155 86 175 228 149 144 154 151 159 133 123 183 105 99 217 182 199 223 201 243 212 216 222 240 210 193 175 165 161 173 159 163 173 142 113 103 154 205 183 196
111 187 163 166 133 81 82 70 65 125 191 227 228 154 208 171 141 156 141 150 159 157 133 171 127 146 172 177 228 221 233 250 233 218 225 247 221 209 189 188 178 160 164 164 162 147 141 153 169 193 148 146 132 144
159 162 156 124 109 105 87 81 103 234 256 269 349 106 195 234 299 83 155 170 18 115 119 97 142 177 204 208 199 211 200 200 213 215 217 219 219 182 173 173 144 149 153 152 169 177 174 181 176 153 145 149 143 162
143 146 140 139 93 84 72 13 83 109 267 263 99 57 39 264 159 87 161 46 85 139 160 184 205 194 176 209 194 191 198 146 128 68 296 259 202 160 183 172 178 151 134 118 124 131 133 137 126 144 143 150 129 154
77 145 100 82 63 58 100 148 55 171 255 238 261 122 101 359 83 126 174 62 65 216 222 207 191 224 182 284 203 138 161 158 183 171 188 194 200 156 130 143 124 126 137 153 163 185 185 189 151 148 143 116 83 92
83 87 75 56 75 19 68 325 95 53 81 255 337 150 113 129 132 159 108 236 245 241 194 165 204 160 168 213 192 182 191 141 110 105 78 117 119 141 186 177 159 176 178 180 178 173 181 158 138 137 113 108 105 94
81 57 51 76 81 46 229 31 91 99 126 248 11 124 151 196 183 139 189 238 254 249 178 173 183 109 157 346 73 103 189 155 151 162 166 157 142 130 123 164 172 161 166 196 162 148 143 139 127 118 116 109 112 94
43 60 79 101 90 168 24 27 27 24 24 68 180 174 228 205 192 168 209 237 246 350 169 193 129 78 31 34 216 213 196 150 107 78 143 134 141 205 159 166 180 182 153 124 140 134 133 128 134 132 129 125 112 110
88 14 99 52 6 83 78 35 290 98 196 194 132 271 222 110 180 218 215 258 222 217 196 158 212 183 161 195 284 260 230 157 162 175 189 133 113 89 64 70 130 205 166 137 153 147 144 145 141 135 132 134 135 128
121 249 145 185 302 130 189 169 206 205 157 176 222 1 20 158 158 235 220 208 205 183 190 189 191 193 241 185 163 195 213 172 124 113 205 187 178 151 164 169 171 222 203 170 148 153 150 148 141 137 131 125 131 126
120 230 268 225 127 111 38 330 334 98 157 199 197 150 151 203 221 246 288 17 318 340 318 290 194 199 203 165 252 265 126 131 135 174 93 125 104 97 146 172 198 202 152 172 164 158 157 154 148 140 129 122 129 131
195 164 153 213 55 133 143 144 179 235 237 174 112 190 209 207 218 283 259 320 300 323 305 293 271 259 223 154 133 128 84 98 93 92 86 59 41 42 46 48 27 113 141 134 130 136 147 146 141 138 134 126 117 113
8 304 86 99 76 162 196 184 215 239 195 116 150 276 262 320 291 320 304 306 302 306 318 312 304 340 29 65 65 55 143 155 140 144 173 189 200 230 142 105 88 106 106 92 84 90 104 114 119 117 114 111 107 101
305 1 89 162 154 212 235 171 212 154 162 226 79 318 267 248 231 164 279 286 299 324 278 260 283 281 213 169 148 69 354 44 60 154 180 192 203 123 135 127 116 118 121 111 108 102 98 98 100 98 103 106 105 108
298 322 223 198 232 243 213 127 71 69 112 195 164 236 268 311 301 186 236 273 290 311 330 312 354 328 192 166 158 142 177 285 10 61 76 92 115 124 129 126 117 111 109 114 121 124 121 111 113 117 115 115 120 121
313 229 171 259 277 303 41 161 187 200 189 193 223 175 283 282 262 143 346 308 330 31 314 293 152 267 286 274 16 47 45 97 81 71 98 110 112 112 110 109 111 117 117 115 116 121 119 120 122 121 118 118 119 119
300 308 282 315 333 296 275 198 237 253 208 223 213 167 205 212 241 28 316 291 329 322 313 356 357 9 45 74 80 79 77 91 103 101 102 108 112 112 108 107 110 112 111 111 112 115 113 115 114 116 116 117 115 113